TimeCDT,TemperatureF,Dew PointF,Humidity,Sea Level PressureIn,VisibilityMPH,Wind Direction,Wind SpeedMPH,Gust SpeedMPH,PrecipitationIn,Events,Conditions,WindDirDegrees,DateUTC
12:54 AM,48.0,46.0,93,29.72,6.0,NNE,27.6,34.5,N/A,,Overcast,20,2012-10-25 05:54:00
1:24 AM,46.4,44.6,93,29.78,6.0,North,32.2,39.1,0.00,Rain,Light Rain,10,2012-10-25 06:24:00
1:54 AM,45.0,42.1,90,29.79,9.0,North,31.1,40.3,0.00,,Overcast,10,2012-10-25 06:54:00
2:44 AM,42.8,39.2,87,29.85,10.0,North,38.0,44.9,N/A,,Overcast,10,2012-10-25 07:44:00
2:51 AM,42.8,37.4,81,29.86,10.0,North,29.9,44.9,N/A,,Overcast,10,2012-10-25 07:51:00
2:54 AM,42.1,37.9,85,29.85,10.0,North,32.2,42.6,N/A,,Overcast,10,2012-10-25 07:54:00
3:05 AM,42.8,37.4,81,29.87,10.0,North,32.2,39.1,N/A,,Overcast,10,2012-10-25 08:05:00
3:15 AM,42.8,37.4,81,29.87,10.0,North,25.3,38.0,N/A,,Overcast,360,2012-10-25 08:15:00
3:23 AM,42.8,37.4,81,29.87,10.0,North,26.5,38.0,N/A,,Overcast,10,2012-10-25 08:23:00
3:34 AM,42.8,37.4,81,29.89,10.0,North,31.1,38.0,N/A,,Overcast,360,2012-10-25 08:34:00
3:54 AM,39.0,34.0,82,29.91,10.0,North,33.4,43.7,N/A,,Overcast,360,2012-10-25 08:54:00
4:34 AM,37.4,30.2,75,29.93,10.0,North,24.2,39.1,N/A,,Overcast,360,2012-10-25 09:34:00
4:54 AM,37.0,30.9,79,29.94,10.0,North,28.8,36.8,N/A,,Overcast,360,2012-10-25 09:54:00
5:54 AM,35.1,28.9,78,29.99,10.0,North,18.4,-,N/A,,Clear,350,2012-10-25 10:54:00
6:15 AM,35.6,30.2,81,30.02,10.0,North,23.0,28.8,N/A,,Mostly Cloudy,350,2012-10-25 11:15:00
6:28 AM,35.6,30.2,81,30.03,10.0,North,23.0,29.9,N/A,,Overcast,360,2012-10-25 11:28:00
6:54 AM,36.0,30.9,82,30.05,10.0,North,23.0,31.1,N/A,,Overcast,360,2012-10-25 11:54:00
7:54 AM,36.0,30.9,82,30.11,10.0,North,24.2,34.5,N/A,,Overcast,350,2012-10-25 12:54:00
8:54 AM,36.0,30.0,79,30.15,10.0,North,24.2,33.4,0.00,,Overcast,360,2012-10-25 13:54:00
9:18 AM,37.4,28.4,70,30.15,10.0,North,26.5,31.1,N/A,,Overcast,350,2012-10-25 14:18:00
9:54 AM,37.9,28.9,70,30.18,10.0,North,26.5,34.5,N/A,,Overcast,350,2012-10-25 14:54:00
10:52 AM,37.4,28.4,70,30.19,10.0,North,25.3,32.2,N/A,,Overcast,350,2012-10-25 15:52:00
10:54 AM,37.9,28.0,68,30.20,10.0,North,26.5,32.2,N/A,,Overcast,360,2012-10-25 15:54:00
11:06 AM,37.4,28.4,70,30.19,10.0,North,26.5,32.2,N/A,,Overcast,360,2012-10-25 16:06:00
11:54 AM,39.9,28.0,63,30.20,10.0,North,26.5,34.5,N/A,,Overcast,360,2012-10-25 16:54:00
12:54 PM,43.0,28.0,56,30.20,10.0,North,21.9,28.8,N/A,,Overcast,10,2012-10-25 17:54:00
1:13 PM,44.6,28.4,53,30.20,10.0,NNE,21.9,27.6,N/A,,Overcast,20,2012-10-25 18:13:00
1:54 PM,44.1,28.0,53,30.19,10.0,North,19.6,-,N/A,,Overcast,10,2012-10-25 18:54:00
2:54 PM,46.4,26.6,46,30.18,10.0,North,19.6,-,N/A,,Mostly Cloudy,10,2012-10-25 19:54:00
3:54 PM,46.9,24.1,41,30.21,10.0,NNE,17.3,24.2,N/A,,Mostly Cloudy,20,2012-10-25 20:54:00
4:54 PM,48.0,24.1,39,30.21,10.0,NNE,16.1,-,N/A,,Clear,20,2012-10-25 21:54:00
5:54 PM,46.0,23.0,40,30.23,10.0,NNE,17.3,-,N/A,,Clear,20,2012-10-25 22:54:00
6:54 PM,43.0,23.0,45,30.25,10.0,NE,11.5,-,N/A,,Clear,40,2012-10-25 23:54:00
7:54 PM,37.9,23.0,55,30.28,10.0,NNE,6.9,-,N/A,,Clear,30,2012-10-26 00:54:00
8:54 PM,34.0,21.9,61,30.32,10.0,NNE,8.1,-,N/A,,Clear,20,2012-10-26 01:54:00
9:54 PM,35.1,23.0,61,30.34,10.0,North,8.1,-,N/A,,Clear,10,2012-10-26 02:54:00
10:54 PM,37.0,24.1,59,30.36,10.0,NNE,8.1,-,N/A,,Mostly Cloudy,30,2012-10-26 03:54:00
11:54 PM,35.1,24.1,64,30.37,10.0,NNE,6.9,-,N/A,,Mostly Cloudy,30,2012-10-26 04:54:00